Weather in Lashkuta

Russia / The Kabardino-Balkar Republic     43°33′00″N   43°12′24″E
В апреле 2022 года жителям России запретили посещать сайт meteo.paraplan.net по решению Генеральной прокуратуры. Аудитория сайта уменьшилась в 10 раз. Владельцы сайта не видят смысла в поддержке погодного сервера в таких условиях. Сайт будет закрыт в октябре.
temp.,
°C
wind,
m/s
gust,
m/s
humid.,
%
clouds,
%
prec.,
mm/h
press.,
hPa
HPBL,
m
4 october, tue
tue400:00+9ese1193100 0.0 1014109
03:00+9ene0197100 0.1 101432
06:00+9wnw119410 0.7 101459
09:00+14ene21725 0.7 1013273
12:00+17ne336313 0.0 1013846
15:00+16nne217012 0.6 1015555
18:00+10ne119855 0.6 101821
21:00+11sw019486 0.7 101968
5 october, wed
wed500:00+10s1294100 0.0 102079
03:00+9s119518 0.0 102016
06:00+9s229418 0.0 101962
09:00+14ne21757 0.0 1019449
12:00+14nne3381100 0.1 1021772
15:00+10ne3396100 2.3 1023290
18:00+9e1196100 0.2 1025142
21:00+9ene119898 0.2 1025115
6 october, thu
thu600:00+8ese1196100 0.3 1024174
03:00+9ene1199100 0.5 1024153
06:00+9ene22100100 0.2 1023139
09:00+8ene2299100 0.8 1023187
12:00+8ne2399100 1.4 1023283
15:00+8nne2399100 2.8 1024258
18:00+7ene1299100 1.3 1025150
21:00+7ese1198100 1.3 1025200
7 october, fri
fri700:00+7e1199100 0.0 102548
03:00+7e119598 0.0 102476
06:00+8ese119596 0.0 102460
09:00+9e229498 0.0 1024323
12:00+9ene2293100 0.1 1024341
15:00+8e2295100 0.2 1024288
18:00+8ese1299100 0.0 1024179
21:00+8ese1299100 0.1 1024166
8 october, sat
sat800:00+8ese129898 0.0 1024132
03:00+8ese2299100 0.0 1023149
06:00+7ese1298100 0.0 1022146
09:00+9ese229098 0.0 1022322
12:00+10e3388100 0.1 1020496
15:00+8e2295100 0.1 1020299
18:00+8e1197100 0.0 1020108
21:00+8e1195100 0.0 101946